Location: Unspecified
(64.9000°N, 0.0000°E)
Time: 09:31:17
(UTC+00:00)

Altair - Pass Details

Date: 18 June 2019
Orbit: 1501 x 1683 km, 47.2° (Epoch: 24 August)

Event Time Altitude Azimuth Distance (km) Brightness Sun altitude
Rises 02:42:49 0° 269° (W) 4,865 9.8 3.6°
Reaches altitude 10° 02:47:12 10° 253° (WSW) 3,903 9.2 3.9°
Maximum altitude 02:53:16 18° 215° (SW) 3,307 8.7 4.3°
Drops below altitude 10° 02:59:25 10° 177° (S) 3,942 9.2 4.7°
Sets 03:03:54 0° 160° (SSE) 4,930 9.9 5.0°
